[[{"header":{"parameterUnit":"m.s-1","parameterCategory":1,"la1":30.2991,"la2":30.254,"lo1":-89.0895,"lo2":-89.0444,"dy":0.0017,"dx":0.0017,"nx":28,"ny":28,"refTime":"2023-08-16T09:00:00:Z","depth":0,"parameterNumber":2,"parameterNumberName":"U-component_of_WINDS"},"data":[0,0,0,0,0,0,0,0,0,0,0,0,0,0,0,0,0,0,0,0,0,0,0,0,0,0,0,0,0,0,0,0,0,0,0,0,0,0,0,0,0,0,0,0,0,0,0,0,0,0,0,0,0,0,0,0,0,0,-1.3137,-1.3138,0,-1.3244,-1.3246,-1.3247,-1.3214,-1.3211,-1.3209,-1.3207,-1.3318,-1.3323,-1.3328,0,0,0,0,0,0,0,0,0,0,0,0,0,-1.2904,-1.2908,-1.3137,-1.3139,-1.314,-1.3244,-1.3246,-1.3247,-1.3214,-1.3211,-1.3209,-1.3206,-1.3317,-1.3323,-1.3329,0,0,0,0,0,0,0,0,0,0,0,0,0,-1.3008,-1.291,-1.3137,-1.3136,-1.3137,-1.3244,-1.3246,-1.3248,-1.3215,-1.3211,-1.3208,-1.3205,-1.3315,-1.3322,-1.3329,-1.3444,0,0,-1.3353,-1.3356,0,0,0,0,0,0,0,0,-1.3002,-1.3016,-1.3135,-1.3136,-1.3138,-1.3212,-1.3204,-1.3314,-1.3216,-1.3185,-1.3207,-1.3203,-1.3286,-1.3296,-1.3323,-1.3449,-1.3454,-1.3353,-1.3358,-1.3361,-1.3363,0,0,0,0,0,0,0,-1.2995,-1.3011,-1.318,-1.3137,-1.3138,-1.313,-1.3141,-1.3225,-1.3253,-1.3188,-1.3185,-1.3199,-1.3286,-1.3316,-1.3325,-1.3456,-1.3353,-1.336,-1.3365,-1.3368,-1.3679,-1.3683,0,0,0,0,0,0,-1.2987,-1.3006,-1.3176,-1.3183,-1.306,-1.3137,-1.3149,-1.3192,-1.3252,-1.3258,-1.3201,-1.3197,-1.3305,-1.3317,-1.3329,-1.3466,-1.3361,-1.3368,-1.3373,-1.3676,-1.368,-1.3684,0,0,0,0,0,0,-1.2982,-1.3002,-1.3172,-1.3094,-1.3115,-1.3145,-1.3193,-1.3196,-1.3226,-1.3263,-1.3268,-1.3227,-1.3302,-1.3319,-1.3415,-1.3469,-1.3372,-1.3379,-1.3671,-1.3677,-1.3682,-1.3742,0,0,0,0,0,0,-1.2975,-1.3001,-1.3045,-1.3095,-1.3119,-1.3257,-1.3196,-1.32,-1.3239,-1.3233,-1.3288,-1.3294,-1.3301,-1.3404,-1.3423,-1.3478,-1.3385,-1.3667,-1.3674,-1.368,-1.3735,-1.3749,-1.376,0,0,0,0,0,-1.2967,-1.3058,-1.3047,-1.3068,-1.3175,-1.326,-1.3273,-1.328,-1.3243,-1.3287,-1.3311,-1.3292,-1.3461,-1.3414,-1.3435,-1.3494,-1.3663,-1.3672,-1.368,-1.3729,-1.3746,-1.376,0,0,0,0,0,0,-1.3014,-1.3065,-1.3053,-1.3163,-1.3207,-1.3254,-1.331,-1.3297,-1.3353,-1.3346,-1.3352,-1.3365,-1.3463,-1.3488,-1.3436,-1.3607,-1.3556,-1.3569,-1.3587,-1.3603,-1.3615,-1.3607,-1.3391,0,0,0,0,0,-1.3037,-1.3102,-1.3142,-1.3236,-1.3258,-1.328,-1.3318,-1.3318,-1.3365,-1.3383,-1.3414,-1.346,-1.3523,-1.3564,-1.3625,-1.3738,-1.3749,-1.3789,-1.3801,-1.3811,-1.3822,-1.3882,-1.39,-1.3712,-1.3712,-1.3712,0,0,-1.3086,-1.3121,-1.3162,-1.3246,-1.328,-1.3346,-1.3297,-1.3369,-1.3418,-1.3395,-1.3487,-1.3511,-1.3562,-1.3668,-1.3716,-1.3691,-1.3877,-1.3822,-1.383,-1.3836,-1.3893,-1.3911,-1.3926,-1.3717,-1.3716,-1.3716,0,0,-1.3208,-1.3242,-1.3322,-1.3357,-1.3409,-1.3423,-1.3442,-1.3491,-1.3506,-1.3599,-1.3581,-1.364,-1.3749,-1.3785,-1.3818,-1.3952,-1.3936,-1.3972,-1.4038,-1.4096,-1.4111,-1.4124,-1.417,-1.4187,-1.3983,-1.3983,-1.3983,0,-1.3262,-1.3361,-1.3366,-1.3439,-1.3476,-1.3456,-1.3537,-1.3571,-1.3641,-1.3666,-1.3638,-1.3773,-1.3806,-1.3919,-1.3951,-1.3979,-1.4,-1.3966,-1.4108,-1.4122,-1.4134,-1.4178,-1.4196,-1.3987,-1.3986,-1.3986,-1.3986,0,-1.3424,-1.3493,-1.3552,-1.3618,-1.3661,-1.3739,-1.3754,-1.3797,-1.3794,-1.3811,-1.3905,-1.3944,-1.401,-1.4037,-1.4036,-1.4149,-1.4132,-1.4107,-1.4056,-1.4156,-1.4197,-1.4214,-1.3992,-1.3991,-1.399,-1.3989,0,0,-1.358,-1.3646,-1.3668,-1.3696,-1.3752,-1.3805,-1.3881,-1.3945,-1.3981,-1.403,-1.4092,-1.4184,-1.416,-1.4197,-1.4199,-1.4251,-1.4352,-1.4218,-1.4219,-1.424,-1.4477,-1.4496,-1.4515,-1.4342,-1.4345,-1.4347,-1.4473,0,-1.3706,-1.3838,-1.3843,-1.3964,-1.4027,-1.4008,-1.4074,-1.4114,-1.4132,-1.4187,-1.4206,-1.4271,-1.4235,-1.4257,-1.4307,-1.4329,-1.4399,-1.432,-1.4399,-1.4402,-1.4386,-1.4537,-1.4557,-1.4674,-1.4489,-1.4492,-1.4494,0,-1.3871,-1.3922,-1.4049,-1.4093,-1.4119,-1.4178,-1.4237,-1.4291,-1.4336,-1.4345,-1.4385,-1.4379,-1.4456,-1.4403,-1.4507,-1.4453,-1.4486,-1.4502,-1.4506,-1.4513,-1.4453,-1.4547,-1.4711,-1.4728,-1.452,-1.4518,-1.4516,0,-1.3969,-1.4071,-1.4159,-1.4185,-1.4239,-1.428,-1.4305,-1.4347,-1.4385,-1.4436,-1.446,-1.452,-1.4553,-1.4599,-1.4609,-1.4569,-1.4713,-1.4661,-1.4721,-1.4721,-1.4752,-1.475,-1.4922,-1.4775,-1.4775,-1.4774,-1.4774,0,-1.4108,-1.4186,-1.4204,-1.4258,-1.4344,-1.4349,-1.4434,-1.4456,-1.4493,-1.455,-1.4539,-1.4593,-1.4603,-1.4659,-1.4668,-1.4752,-1.4767,-1.4776,-1.4777,-1.4776,-1.4775,-1.4797,-1.4789,-1.4779,-1.4778,-1.4777,-1.4776,0,-1.4233,-1.4248,-1.4343,-1.4386,-1.4399,-1.446,-1.4497,-1.4548,-1.4564,-1.4637,-1.4654,-1.4678,-1.4744,-1.4758,-1.4836,-1.4841,-1.4941,-1.4935,-1.4925,-1.4924,-1.4983,-1.4977,-1.5175,-1.52,-1.5038,-1.504,-1.5041,0,-1.432,-1.4379,-1.4428,-1.4466,-1.4492,-1.4553,-1.459,-1.4597,-1.4637,-1.4692,-1.4737,-1.4801,-1.4852,-1.4958,-1.4982,-1.5041,-1.5035,-1.5101,-1.5044,-1.5041,-1.5034,-1.503,-1.5035,-1.5111,-1.5113,-1.5114,-1.5115,0,-1.4473,-1.4477,-1.4532,-1.4589,-1.4635,-1.4681,-1.4724,-1.4755,-1.4768,-1.4813,-1.488,-1.4919,-1.4998,-1.5061,-1.512,-1.5145,-1.5132,-1.5133,-1.515,-1.5149,-1.514,-1.5144,-1.4953,-1.5128,-1.5127,-1.5126,-1.5125,-1.5125,-1.458,-1.4631,-1.4673,-1.4734,-1.4767,-1.4808,-1.4858,-1.4879,-1.4934,-1.4998,-1.4999,-1.5071,-1.5113,-1.519,-1.5219,-1.5275,-1.5254,-1.5279,-1.5285,-1.5291,-1.5295,-1.5133,-1.5286,-1.5285,-1.5285,-1.5285,-1.5284,0,-1.4731,-1.4756,-1.4812,-1.4873,-1.4921,-1.4904,-1.4951,-1.4992,-1.5055,-1.5095,-1.5146,-1.5221,-1.5282,-1.531,-1.537,-1.5409,-1.5404,-1.5424,-1.5421,-1.5426,-1.5311,-1.529,-1.5427,-1.5427,-1.5427,-1.5427,-1.5427,-1.5427,-1.4814,-1.4899,-1.4908,-1.5008,-1.5033,-1.5103,-1.5131,-1.5167,-1.5199,-1.5284,-1.5334,-1.5352,-1.5387,-1.5449,-1.5503,-1.551,-1.5532,-1.5554,-1.5558,-1.5449,-1.5435,-1.5421,-1.5401,-1.556,-1.556,-1.5669,-1.567,-1.5671]},{"header":{"parameterUnit":"m.s-1","parameterCategory":1,"la1":30.2991,"la2":30.254,"lo1":-89.0895,"lo2":-89.0444,"dy":0.0017,"dx":0.0017,"nx":28,"ny":28,"refTime":"2023-08-16T09:00:00:Z","depth":0,"parameterNumber":3,"parameterNumberName":"V-component_of_WINDS"},"data":[0,0,0,0,0,0,0,0,0,0,0,0,0,0,0,0,0,0,0,0,0,0,0,0,0,0,0,0,0,0,0,0,0,0,0,0,0,0,0,0,0,0,0,0,0,0,0,0,0,0,0,0,0,0,0,0,0,0,-3.8855,-3.8853,0,-3.8658,-3.8656,-3.8653,-3.8466,-3.8464,-3.8461,-3.8459,-3.8248,-3.8245,-3.8241,0,0,0,0,0,0,0,0,0,0,0,0,0,-3.906,-3.9057,-3.8855,-3.8853,-3.8851,-3.8658,-3.8656,-3.8653,-3.8466,-3.8463,-3.8461,-3.8458,-3.8249,-3.8245,-3.8241,0,0,0,0,0,0,0,0,0,0,0,0,0,-3.8928,-3.9056,-3.8856,-3.8734,-3.8722,-3.8659,-3.8655,-3.8652,-3.8467,-3.8463,-3.846,-3.8457,-3.8251,-3.8246,-3.8241,-3.8279,0,0,-3.8225,-3.8223,0,0,0,0,0,0,0,0,-3.8935,-3.892,-3.8755,-3.8743,-3.8728,-3.8583,-3.865,-3.8527,-3.8468,-3.8563,-3.8459,-3.8455,-3.8362,-3.8347,-3.8318,-3.8269,-3.826,-3.8224,-3.8221,-3.8219,-3.8218,0,0,0,0,0,0,0,-3.8945,-3.8928,-3.8777,-3.8753,-3.8736,-3.8686,-3.8664,-3.8626,-3.8484,-3.8555,-3.8541,-3.852,-3.8354,-3.8323,-3.8311,-3.8257,-3.8224,-3.822,-3.8217,-3.8215,-3.8225,-3.8228,0,0,0,0,0,0,-3.8974,-3.8937,-3.8783,-3.8771,-3.8826,-3.8685,-3.866,-3.8633,-3.8484,-3.8459,-3.8524,-3.8512,-3.8334,-3.8318,-3.8303,-3.8336,-3.8219,-3.8214,-3.8211,-3.8221,-3.8225,-3.8229,0,0,0,0,0,0,-3.8979,-3.8962,-3.8791,-3.885,-3.8824,-3.8686,-3.8657,-3.8631,-3.86,-3.8461,-3.8434,-3.8519,-3.833,-3.831,-3.8286,-3.8326,-3.8212,-3.8207,-3.8217,-3.8223,-3.8227,-3.8405,0,0,0,0,0,0,-3.8986,-3.8965,-3.8981,-3.8852,-3.8822,-3.8782,-3.8659,-3.863,-3.8593,-3.8576,-3.8449,-3.8425,-3.8326,-3.8295,-3.8281,-3.8317,-3.8203,-3.8213,-3.822,-3.8226,-3.8395,-3.8415,-3.8433,0,0,0,0,0,-3.8994,-3.9038,-3.8983,-3.8966,-3.884,-3.8784,-3.8767,-3.8655,-3.8597,-3.861,-3.852,-3.8429,-3.8324,-3.8294,-3.8277,-3.8312,-3.821,-3.8218,-3.8225,-3.8386,-3.8411,-3.8432,0,0,0,0,0,0,-3.9174,-3.9019,-3.8956,-3.8961,-3.8888,-3.8753,-3.8767,-3.8685,-3.8625,-3.8611,-3.8472,-3.8444,-3.8435,-3.837,-3.834,-3.8339,-3.8254,-3.8259,-3.8382,-3.8405,-3.8424,-3.8439,-3.8199,0,0,0,0,0,-3.9215,-3.9186,-3.905,-3.9067,-3.9033,-3.8907,-3.8878,-3.8798,-3.8715,-3.8683,-3.859,-3.8511,-3.8459,-3.8428,-3.8373,-3.8383,-3.8351,-3.8399,-3.8418,-3.8434,-3.844,-3.8436,-3.8455,-3.8254,-3.8254,-3.8254,0,0,-3.9297,-3.9209,-3.9199,-3.9101,-3.9035,-3.9004,-3.8882,-3.8856,-3.883,-3.8677,-3.8649,-3.8579,-3.8479,-3.8472,-3.8464,-3.8418,-3.8488,-3.8444,-3.8458,-3.8454,-3.8446,-3.8465,-3.8482,-3.8259,-3.8258,-3.8257,0,0,-3.9433,-3.9365,-3.937,-3.9306,-3.9208,-3.9122,-3.9124,-3.9001,-3.8949,-3.8919,-3.8802,-3.8768,-3.8683,-3.8616,-3.8572,-3.8678,-3.8591,-3.8664,-3.8764,-3.8762,-3.8778,-3.8791,-3.8827,-3.8842,-3.867,-3.867,-3.867,0,-3.9548,-3.9501,-3.9382,-3.9363,-3.9321,-3.9183,-3.9185,-3.9127,-3.9015,-3.8988,-3.8938,-3.8827,-3.875,-3.8724,-3.875,-3.8719,-3.8713,-3.8678,-3.8786,-3.8798,-3.8808,-3.8841,-3.8855,-3.8679,-3.8678,-3.8677,-3.8676,0,-3.9646,-3.9615,-3.963,-3.9528,-3.9487,-3.9479,-3.9355,-3.9328,-3.925,-3.9169,-3.9137,-3.904,-3.8962,-3.8949,-3.8873,-3.8911,-3.8885,-3.8813,-3.8725,-3.8839,-3.8867,-3.8879,-3.8693,-3.869,-3.8687,-3.8684,0,0,-3.9892,-3.9723,-3.973,-3.9681,-3.956,-3.9532,-3.9514,-3.944,-3.9418,-3.9344,-3.9324,-3.9253,-3.9185,-3.9134,-3.9047,-3.9047,-3.9134,-3.8973,-3.8968,-3.9005,-3.9166,-3.9221,-3.9238,-3.9075,-3.9077,-3.9078,-3.9174,0,-4.0007,-3.9972,-3.9863,-3.986,-3.9827,-3.9693,-3.9677,-3.9599,-3.9522,-3.9479,-3.9391,-3.9344,-3.9258,-3.9226,-3.9219,-3.9126,-3.9164,-3.9117,-3.9051,-3.905,-3.9081,-3.9253,-3.9312,-3.9407,-3.9184,-3.9186,-3.9187,0,-4.0137,-4.0074,-4.0069,-3.9947,-3.9929,-3.9918,-3.9838,-3.9801,-3.9708,-3.9651,-3.9593,-3.9497,-3.9466,-3.9385,-3.9338,-3.9309,-3.9274,-3.9223,-3.9224,-3.9214,-3.9126,-3.9246,-3.9435,-3.945,-3.9204,-3.9202,-3.9201,0,-4.0316,-4.0229,-4.0213,-4.0175,-4.0033,-4.0028,-3.9967,-3.9871,-3.9832,-3.9761,-3.9734,-3.966,-3.9619,-3.9562,-3.9446,-3.9398,-3.9411,-3.9321,-3.936,-3.9363,-3.937,-3.9371,-3.9556,-3.9349,-3.9349,-3.9349,-3.9348,0,-4.0456,-4.0457,-4.0292,-4.0283,-4.0278,-4.015,-4.0148,-4.0074,-3.9989,-3.9959,-3.9837,-3.9811,-3.966,-3.9615,-3.9524,-3.9498,-3.948,-3.943,-3.9406,-3.9442,-3.9448,-3.9417,-3.9408,-3.9352,-3.9352,-3.9351,-3.935,0,-4.0656,-4.0545,-4.0519,-4.0387,-4.0353,-4.0356,-4.024,-4.0223,-4.0137,-4.0101,-4.0085,-3.9949,-3.9889,-3.9768,-3.9675,-3.9612,-3.9607,-3.9564,-3.964,-3.9625,-3.9671,-3.9668,-3.9842,-3.9857,-3.9643,-3.9645,-3.9647,0,-4.0753,-4.0751,-4.0618,-4.0591,-4.0536,-4.0494,-4.0454,-4.0326,-4.0288,-4.018,-4.0175,-4.0107,-4.0045,-3.9955,-3.9845,-3.9772,-3.9725,-3.9791,-3.9714,-3.9748,-3.9725,-3.9726,-3.9724,-3.9809,-3.9812,-3.9815,-3.9817,0,-4.0936,-4.088,-4.0829,-4.0759,-4.0715,-4.0652,-4.0582,-4.0565,-4.0419,-4.0382,-4.0322,-4.0274,-4.0178,-4.011,-4.002,-3.9952,-3.9859,-3.9842,-3.9847,-3.9883,-3.9927,-3.9902,-3.9687,-3.9839,-3.9836,-3.9835,-3.9834,-3.9833,-4.1085,-4.1077,-4.0982,-4.0927,-4.0861,-4.0798,-4.0776,-4.0687,-4.0635,-4.055,-4.0475,-4.0421,-4.0321,-4.0191,-4.0129,-4.0081,-4.0035,-4.0043,-4.0045,-4.0049,-4.0063,-3.9935,-4.0063,-4.0063,-4.0062,-4.0061,-4.0061,0,-4.1261,-4.1193,-4.1145,-4.1052,-4.1008,-4.0926,-4.0843,-4.0811,-4.0766,-4.0683,-4.0625,-4.0553,-4.0485,-4.0369,-4.0291,-4.0274,-4.0229,-4.0257,-4.0257,-4.0242,-4.0109,-4.0112,-4.0295,-4.0295,-4.0295,-4.0295,-4.0295,-4.0295,-4.1348,-4.1328,-4.1261,-4.1205,-4.1134,-4.1083,-4.1042,-4.0981,-4.0914,-4.0841,-4.0785,-4.0711,-4.0613,-4.0525,-4.0458,-4.0425,-4.0401,-4.0443,-4.0397,-4.0274,-4.0252,-4.0231,-4.0234,-4.0439,-4.0439,-4.0534,-4.0535,-4.0535]}]]